Simultaneous Nadir Overpasses (SNOs) Predictions

Prediction of SNOs between AQUA and METOP-B Satellite Orbit:

Table of predicted SNOs for the next 14.0 days since TLE Epoch: 9/21/2013
Index Date (AQUA) Time (AQUA) Lat,Lon (AQUA) SZA (AQUA ) Date (METOP-B) Time (METOP-B) Lat,Lon (METOP-B) SZA (METOP-B ) Distance(km) Time Diff (sec)
1 09/21/2013 03:46:30 73.82, 117.63 73.11 09/21/2013 03:47:15 73.79, 117.68 73.08 3.21 45
2 09/23/2013 22:31:16 -73.72, 16.66 105.93 09/23/2013 22:30:57 -73.73, 16.60 105.91 2.39 19
3 09/23/2013 23:20:45 73.80,-175.89 74.17 09/23/2013 23:21:36 73.79,-175.93 74.16 1.69 51
4 09/26/2013 17:15:57 73.23, -83.52 74.65 09/26/2013 17:14:49 73.15, -85.64 74.62 68.49 68
5 09/26/2013 18:05:33 -73.76, 82.98 104.79 09/26/2013 18:05:18 -73.77, 83.09 104.78 3.43 15
6 09/26/2013 18:55:01 73.80,-109.45 75.27 09/26/2013 18:55:57 73.83,-109.43 75.29 3.48 56
7 09/29/2013 12:50:17 73.46, -17.57 75.98 09/29/2013 12:49:06 73.39, -18.70 75.93 36.85 71
8 09/29/2013 13:39:48 -73.73, 149.49 103.73 09/29/2013 13:39:40 -73.75, 149.47 103.71 2.46 8
9 09/29/2013 14:29:17 73.82, -43.07 76.38 09/29/2013 14:30:19 73.81, -43.05 76.37 0.84 62
10 10/02/2013 08:24:35 73.66, 48.44 77.28 10/02/2013 08:23:22 73.62, 48.23 77.24 7.86 73
11 10/02/2013 09:14:03 -73.77,-144.17 102.60 10/02/2013 09:14:00 -73.78,-144.05 102.59 3.73 3
12 10/02/2013 10:03:31 73.81, 23.38 77.46 10/02/2013 10:04:40 73.80, 23.31 77.44 2.92 69




NCC Satellite Simultaneous Nadir Overpasses (SNOs) Prediction Service
